User: anonymous   Login
Location: Cella
(44.7333°N, 10.5667°E)
Time: 12:35:44
(UTC+00:00)
Language:

Cosmos 2322 Rocket - Orbit

View from above orbital plane
View from above orbital plane
View from above satellite
View from above satellite

Ground track
Ground track

The orbit data is extracted from the following two-line orbital elements,

1 23705U 95058B   21131.85053083 -.00000139  00000-0 -46773-4 0  9990
2 23705  71.0225 279.9248 0014817 284.0847  75.8629 14.15152611318434
Epoch (UTC): 11 May 2021 20:24:45
Eccentricity: 0.0014817
inclination: 71.0225°
perigee height: 831 km
apogee height: 852 km
right ascension of ascending node: 279.9248°
argument of perigee: 284.0847°
revolutions per day: 14.15152611
mean anomaly at epoch: 75.8629°
orbit number at epoch: 31843

The dashed part of the orbit path shows where the satellite is in the earth's shadow,  

DLR